Location: Halvern
(37.6252°N, 122.0525°W)
Time: 16:21:07
(UTC+00:00)

Cosmos 1538 Rocket - Pass Details

Date: 29 May 2024
Orbit: 751 x 789 km, 74.0° (Epoch: 18 June)

Event Time Altitude Azimuth Distance (km) Brightness Sun altitude
Rises 12:12:45 0° 342° (NNW) 3,208 7.5 -7.0°
Reaches altitude 10° 12:15:07 10° 344° (NNW) 2,281 6.7 -6.6°
Maximum altitude 12:20:17 82° 72° (ENE) 767 4.1 -5.8°
Drops below altitude 10° 12:25:28 10° 160° (SSE) 2,283 6.3 -4.9°
Sets 12:27:50 0° 161° (SSE) 3,210 7.1 -4.5°
